Location: Devargunta
(16.7631°N, 80.9077°E)
Time: 19:49:00
(UTC+00:00)

CZ-4 R/B - Pass Details

Date: 19 January 2021
Orbit: 531 x 599 km, 97.7° (Epoch: 03 March)

Event Time Altitude Azimuth Distance (km) Brightness Sun altitude
Rises 12:54:28 0° 146° (SE) 2,828 4.8 -7.4°
Reaches altitude 10° 12:56:53 10° 134° (SE) 1,922 3.8 -7.9°
Maximum altitude 13:00:25 27° 76° (ENE) 1,141 2.4 -8.7°
Drops below altitude 10° 13:03:55 10° 18° (NNE) 1,902 3.7 -9.5°
Sets 13:06:17 0° 6° (N) 2,791 4.7 -10.0°
